Precipitable_Water
0.74 0.73 0.74 0.75 0.79 0.82 0.85 0.88 0.90 0.92 0.94 0.97 1.00 1.02 1.04 1.03 1.00 0.98 0.97 1.02 1.10 1.23 1.38 1.46 1.53 1.53 1.53 1.53 1.50 1.48 1.44 1.26 1.15 1.04 0.95 0.95 1.04 1.05 1.05 1.12 1.15 1.15 1.18 1.23 1.28 1.18 1.09 1.11 1.07 1.02 0.99 0.95 0.93 0.91 0.98 0.99 0.97 0.90 0.74 0.68 0.61 0.66 0.63 0.69 0.66 0.66 0.66 0.57 0.60 0.62 0.62 0.62 0.61 0.65 0.68 0.74 0.71 0.63 0.60 0.52 0.55 0.55 0.49 0.52 0.57 0.59 0.64 0.72
0.72 0.73 0.73 0.77 0.79 0.81 0.83 0.87 0.89 0.90 0.92 0.95 0.98 0.99 1.03 1.03 1.02 0.98 0.95 0.97 1.05 1.12 1.22 1.42 1.52 1.52 1.52 1.53 1.53 1.52 1.42 1.27 1.10 1.05 0.97 1.10 1.09 1.10 1.08 1.07 1.14 1.11 1.12 1.06 1.11 1.10 1.06 1.03 1.05 1.00 0.93 0.84 0.92 0.86 0.96 0.89 0.98 0.79 0.74 0.70 0.60 0.67 0.71 0.74 0.72 0.69 0.64 0.61 0.62 0.62 0.63 0.62 0.64 0.68 0.70 0.65 0.67 0.67 0.61 0.56 0.55 0.52 0.51 0.53 0.57 0.58 0.58 0.62
0.72 0.71 0.72 0.74 0.81 0.81 0.81 0.85 0.88 0.89 0.90 0.93 0.96 0.98 1.01 1.04 1.03 1.01 0.94 0.93 1.00 1.06 1.11 1.27 1.41 1.50 1.52 1.52 1.53 1.55 1.43 1.21 1.10 0.93 1.02 1.20 1.13 1.13 1.10 1.06 1.10 1.11 1.04 0.99 1.10 1.14 1.10 1.08 1.08 0.97 0.91 0.82 0.82 0.80 0.89 0.85 0.91 0.86 0.75 0.65 0.67 0.77 0.73 0.75 0.73 0.69 0.74 0.71 0.65 0.60 0.60 0.62 0.68 0.68 0.74 0.63 0.66 0.70 0.65 0.64 0.60 0.55 0.52 0.52 0.56 0.57 0.57 0.59
0.73 0.73 0.71 0.74 0.76 0.83 0.80 0.83 0.88 0.88 0.89 0.91 0.93 0.97 1.00 1.02 1.05 1.04 0.98 0.90 0.94 1.02 1.06 1.14 1.33 1.42 1.50 1.53 1.55 1.53 1.39 1.19 0.93 0.94 1.14 1.20 1.16 1.15 1.11 1.08 1.08 1.11 1.06 1.03 1.12 1.14 1.19 1.15 1.11 0.99 0.88 0.79 0.77 0.81 0.76 0.83 0.80 0.83 0.75 0.67 0.74 0.81 0.73 0.73 0.78 0.72 0.74 0.73 0.70 0.66 0.64 0.61 0.66 0.69 0.68 0.64 0.62 0.65 0.68 0.71 0.70 0.70 0.63 0.60 0.62 0.60 0.58 0.57
0.71 0.75 0.73 0.73 0.78 0.80 0.80 0.82 0.86 0.88 0.89 0.88 0.91 0.94 0.97 1.00 1.04 1.06 1.03 0.93 0.88 0.95 1.00 1.05 1.19 1.38 1.50 1.53 1.57 1.53 1.25 0.90 0.87 1.10 1.21 1.17 1.21 1.17 1.11 1.09 1.08 1.11 1.05 1.03 0.99 1.05 1.08 1.04 0.99 0.95 0.87 0.72 0.77 0.73 0.76 0.84 0.87 0.81 0.74 0.80 0.78 0.79 0.76 0.76 0.76 0.74 0.74 0.75 0.72 0.69 0.65 0.64 0.71 0.69 0.66 0.65 0.59 0.59 0.64 0.70 0.73 0.74 0.73 0.72 0.74 0.70 0.67 0.60
0.72 0.73 0.74 0.73 0.77 0.82 0.81 0.82 0.85 0.87 0.88 0.88 0.89 0.93 0.96 0.99 1.01 1.04 1.06 1.01 0.89 0.90 0.96 0.98 1.05 1.25 1.42 1.49 1.51 1.42 1.15 0.60 1.04 1.10 1.19 1.21 1.18 1.22 1.16 1.10 1.08 1.11 1.07 0.94 0.88 0.95 0.97 1.01 0.99 0.88 0.82 0.74 0.73 0.65 0.73 0.81 0.83 0.66 0.76 0.79 0.82 0.81 0.77 0.79 0.78 0.76 0.75 0.72 0.69 0.67 0.68 0.70 0.68 0.66 0.68 0.65 0.63 0.65 0.74 0.75 0.75 0.76 0.81 0.89 0.91 0.88 0.80 0.72
0.71 0.72 0.73 0.74 0.74 0.77 0.78 0.79 0.82 0.86 0.89 0.89 0.88 0.93 0.97 0.99 1.00 1.02 1.06 1.05 0.98 0.90 0.93 0.97 0.99 1.13 1.28 1.41 1.45 1.29 1.07 0.91 1.17 1.34 1.30 1.25 1.21 1.16 1.20 1.15 1.10 1.06 1.02 0.84 0.82 0.82 0.87 0.92 0.93 0.84 0.79 0.75 0.76 0.68 0.75 0.77 0.78 0.75 0.69 0.78 0.79 0.83 0.79 0.80 0.78 0.80 0.74 0.73 0.70 0.70 0.76 0.71 0.67 0.62 0.69 0.66 0.69 0.70 0.74 0.76 0.75 0.76 0.78 0.81 0.83 0.87 0.88 0.85
0.71 0.73 0.72 0.71 0.71 0.73 0.76 0.76 0.78 0.85 0.88 0.89 0.90 0.90 0.96 0.99 1.01 1.02 1.06 1.07 1.02 0.94 0.91 0.94 0.98 1.03 1.16 1.26 1.19 1.04 1.01 0.92 1.13 1.25 1.27 1.31 1.28 1.19 1.17 1.17 1.08 1.04 0.94 0.79 0.77 0.73 0.80 0.81 0.82 0.89 0.79 0.71 0.74 0.72 0.77 0.71 0.73 0.69 0.69 0.73 0.73 0.79 0.81 0.80 0.81 0.79 0.79 0.75 0.77 0.78 0.74 0.74 0.74 0.69 0.69 0.68 0.71 0.72 0.73 0.75 0.75 0.77 0.79 0.78 0.80 0.84 0.88 0.92
0.71 0.71 0.72 0.71 0.69 0.71 0.74 0.75 0.76 0.81 0.89 0.91 0.91 0.89 0.94 0.98 1.00 1.02 1.05 1.09 1.07 0.98 0.93 0.93 0.95 0.96 1.06 1.10 1.01 0.92 0.89 1.11 1.28 1.30 1.24 1.25 1.31 1.28 1.20 1.06 1.10 0.98 0.91 0.85 0.82 0.76 0.74 0.73 0.83 0.88 0.72 0.74 0.81 0.73 0.75 0.66 0.60 0.71 0.72 0.77 0.72 0.74 0.80 0.81 0.81 0.80 0.79 0.78 0.79 0.77 0.76 0.80 0.77 0.80 0.75 0.78 0.79 0.76 0.74 0.76 0.74 0.74 0.75 0.78 0.78 0.80 0.88 0.91
0.71 0.71 0.71 0.70 0.69 0.68 0.71 0.75 0.76 0.78 0.87 0.91 0.90 0.89 0.92 0.97 0.99 1.02 1.04 1.08 1.09 1.03 0.97 0.95 0.98 1.01 0.90 0.84 0.92 0.73 0.92 1.29 1.32 1.30 1.26 1.28 1.31 1.29 1.18 1.11 1.07 0.97 0.87 0.84 0.82 0.76 0.69 0.71 0.77 0.91 0.90 0.84 0.88 0.74 0.78 0.70 0.64 0.76 0.73 0.76 0.72 0.74 0.77 0.79 0.78 0.79 0.79 0.78 0.77 0.73 0.75 0.78 0.77 0.78 0.69 0.84 0.87 0.86 0.77 0.75 0.73 0.71 0.71 0.74 0.77 0.80 0.84 0.89
0.71 0.71 0.70 0.69 0.68 0.67 0.67 0.70 0.76 0.77 0.81 0.86 0.86 0.89 0.92 0.96 0.96 0.99 1.04 1.07 1.09 1.06 1.01 0.97 0.98 0.98 0.81 0.88 0.67 0.61 1.15 1.20 1.27 1.29 1.27 1.26 1.29 1.22 1.13 1.09 1.09 0.96 0.90 0.85 0.78 0.77 0.76 0.73 0.80 0.90 0.89 0.77 0.86 0.77 0.76 0.72 0.79 0.75 0.73 0.73 0.71 0.74 0.76 0.76 0.77 0.76 0.77 0.74 0.78 0.76 0.73 0.79 0.78 0.77 0.71 0.83 0.77 0.81 0.78 0.75 0.73 0.72 0.72 0.72 0.75 0.79 0.83 0.86
0.70 0.69 0.69 0.69 0.69 0.68 0.67 0.68 0.71 0.76 0.81 0.85 0.83 0.90 0.90 0.94 0.94 0.97 1.01 1.05 1.09 1.09 1.04 1.01 1.01 0.99 0.88 0.65 0.67 0.70 1.11 1.14 1.19 1.27 1.28 1.22 1.17 1.19 1.20 1.16 1.09 0.96 0.90 0.81 0.80 0.82 0.81 0.75 0.79 0.80 0.66 0.86 0.68 0.80 0.73 0.79 0.75 0.74 0.72 0.60 0.66 0.70 0.67 0.72 0.70 0.74 0.76 0.72 0.77 0.74 0.69 0.66 0.69 0.64 0.77 0.85 0.89 0.84 0.81 0.76 0.75 0.74 0.74 0.74 0.75 0.78 0.83 0.86
0.67 0.67 0.67 0.67 0.67 0.68 0.68 0.68 0.68 0.71 0.78 0.86 0.83 0.85 0.87 0.92 0.95 0.96 1.02 1.04 1.08 1.09 1.06 1.00 1.03 0.99 0.82 0.52 0.57 0.89 1.12 1.10 1.13 1.20 1.22 1.25 1.21 1.21 1.22 1.20 1.10 1.02 0.96 0.89 0.82 0.84 0.84 0.78 0.78 0.69 0.77 0.77 0.76 0.65 0.78 0.81 0.75 0.77 0.70 0.64 0.62 0.61 0.58 0.68 0.73 0.75 0.71 0.75 0.78 0.76 0.48 0.53 0.62 0.69 0.78 0.84 0.85 0.86 0.83 0.82 0.81 0.78 0.76 0.76 0.77 0.79 0.84 0.88
0.64 0.65 0.66 0.65 0.65 0.66 0.67 0.68 0.69 0.70 0.72 0.79 0.83 0.82 0.85 0.91 0.94 0.93 0.99 1.04 1.06 1.10 1.07 1.02 1.02 0.94 0.79 0.54 0.63 0.82 1.03 1.05 1.12 1.10 1.17 1.25 1.13 1.11 1.18 1.20 1.15 1.08 1.06 0.97 0.99 0.99 0.89 0.85 0.82 0.76 0.90 0.78 0.69 0.86 0.74 0.75 0.76 0.62 0.64 0.68 0.55 0.52 0.47 0.66 0.67 0.71 0.65 0.74 0.77 0.74 0.49 0.52 0.63 0.72 0.79 0.82 0.82 0.79 0.76 0.79 0.82 0.83 0.82 0.81 0.81 0.81 0.84 0.89
0.65 0.64 0.65 0.65 0.65 0.64 0.65 0.67 0.68 0.69 0.72 0.74 0.80 0.90 0.86 0.89 0.93 0.91 0.97 1.02 1.08 1.12 1.12 1.09 1.02 0.87 0.70 0.63 0.77 0.86 0.93 1.08 0.99 1.04 1.24 1.19 1.09 1.06 1.05 1.13 1.11 1.06 1.03 1.04 1.03 1.06 1.02 0.96 0.82 0.68 0.66 0.85 0.84 0.69 0.67 0.62 0.65 0.65 0.55 0.47 0.54 0.49 0.48 0.61 0.71 0.66 0.58 0.65 0.74 0.67 0.50 0.52 0.59 0.69 0.78 0.82 0.80 0.78 0.73 0.75 0.77 0.80 0.83 0.84 0.84 0.82 0.82 0.86
0.64 0.63 0.63 0.63 0.64 0.64 0.63 0.64 0.66 0.68 0.70 0.73 0.75 0.82 0.84 0.88 0.92 0.91 0.95 1.00 1.06 1.09 1.14 0.99 0.92 0.82 0.68 0.57 0.72 0.98 0.80 0.69 0.83 1.10 1.25 1.18 1.14 0.99 1.07 1.05 1.13 1.08 1.05 0.96 1.03 1.02 0.98 0.90 0.71 0.70 0.65 0.70 0.68 0.64 0.56 0.56 0.54 0.59 0.52 0.45 0.47 0.49 0.47 0.51 0.60 0.65 0.65 0.65 0.67 0.61 0.47 0.53 0.52 0.64 0.71 0.75 0.76 0.74 0.72 0.71 0.73 0.75 0.78 0.80 0.81 0.82 0.81 0.80
0.65 0.63 0.63 0.64 0.63 0.62 0.62 0.62 0.64 0.66 0.68 0.72 0.76 0.79 0.82 0.85 0.89 0.90 0.95 1.00 1.02 1.10 1.05 0.86 0.90 0.92 0.54 0.83 0.98 0.63 0.59 0.72 1.02 1.14 1.16 1.19 1.15 1.14 1.09 1.09 1.02 1.01 1.02 0.98 0.97 0.95 0.94 0.81 0.84 0.74 0.74 0.60 0.58 0.60 0.53 0.44 0.41 0.46 0.50 0.43 0.47 0.45 0.47 0.44 0.56 0.60 0.59 0.58 0.51 0.57 0.50 0.49 0.52 0.56 0.61 0.66 0.68 0.68 0.66 0.67 0.70 0.72 0.73 0.75 0.78 0.79 0.78 0.77
0.66 0.63 0.62 0.62 0.63 0.63 0.61 0.61 0.62 0.64 0.68 0.71 0.73 0.77 0.80 0.85 0.89 0.88 0.88 0.97 1.05 1.02 1.01 1.09 0.97 0.79 0.64 0.77 0.53 0.57 0.71 0.76 0.92 1.05 1.05 1.19 1.25 1.17 1.10 1.03 1.08 1.01 0.97 0.88 0.94 0.78 0.87 0.74 0.78 0.59 0.58 0.57 0.59 0.54 0.43 0.33 0.35 0.36 0.41 0.40 0.41 0.45 0.46 0.45 0.46 0.51 0.53 0.52 0.47 0.47 0.45 0.45 0.48 0.50 0.52 0.57 0.61 0.60 0.59 0.60 0.63 0.65 0.69 0.71 0.72 0.73 0.74 0.75
0.65 0.63 0.62 0.62 0.63 0.63 0.62 0.61 0.61 0.62 0.66 0.70 0.73 0.77 0.80 0.86 0.87 0.88 0.76 0.82 0.77 0.67 0.61 0.67 0.71 0.49 0.43 0.51 0.63 0.70 0.70 0.88 1.00 0.99 1.02 1.09 1.16 1.21 1.18 1.16 1.07 0.95 0.81 0.73 0.73 0.76 0.81 0.74 0.74 0.61 0.49 0.49 0.48 0.49 0.46 0.43 0.48 0.45 0.40 0.40 0.39 0.36 0.35 0.39 0.46 0.54 0.50 0.44 0.42 0.43 0.39 0.43 0.45 0.44 0.47 0.50 0.53 0.54 0.53 0.56 0.57 0.58 0.61 0.64 0.69 0.72 0.73 0.74
0.59 0.59 0.61 0.63 0.63 0.64 0.63 0.62 0.60 0.62 0.65 0.66 0.68 0.70 0.68 0.57 0.59 0.55 0.72 0.77 0.66 0.66 0.66 0.72 0.72 0.67 0.64 0.71 0.55 0.78 0.92 0.91 0.73 0.86 1.00 1.15 1.08 1.08 1.06 1.06 1.01 0.97 0.81 0.65 0.69 0.73 0.76 0.57 0.52 0.50 0.47 0.49 0.49 0.51 0.52 0.56 0.53 0.50 0.47 0.45 0.42 0.38 0.40 0.45 0.45 0.53 0.52 0.42 0.40 0.41 0.42 0.42 0.43 0.44 0.44 0.47 0.48 0.47 0.47 0.49 0.52 0.51 0.51 0.53 0.57 0.61 0.66 0.70
0.55 0.55 0.58 0.62 0.64 0.64 0.64 0.63 0.61 0.62 0.65 0.64 0.63 0.55 0.42 0.45 0.41 0.38 0.52 0.62 0.74 0.73 0.71 0.73 0.75 0.65 0.58 0.74 0.76 0.66 0.69 0.77 0.80 0.75 0.89 1.20 1.07 1.02 0.91 0.94 0.85 0.77 0.79 0.74 0.66 0.81 0.75 0.55 0.50 0.54 0.52 0.51 0.54 0.58 0.58 0.56 0.55 0.53 0.51 0.49 0.46 0.43 0.37 0.44 0.43 0.51 0.51 0.39 0.36 0.40 0.39 0.39 0.42 0.45 0.44 0.46 0.46 0.43 0.44 0.43 0.45 0.47 0.47 0.46 0.48 0.51 0.55 0.60
0.53 0.53 0.55 0.60 0.64 0.64 0.64 0.64 0.63 0.63 0.65 0.66 0.61 0.53 0.57 0.55 0.62 0.66 0.52 0.41 0.62 0.74 0.75 0.80 0.82 0.71 0.74 0.73 0.91 0.85 0.74 0.71 0.74 0.77 0.91 1.01 0.99 0.83 0.88 0.84 0.76 0.69 0.78 0.78 0.74 0.67 0.59 0.52 0.53 0.53 0.55 0.59 0.59 0.60 0.60 0.53 0.49 0.51 0.50 0.48 0.48 0.47 0.46 0.47 0.49 0.51 0.48 0.40 0.34 0.38 0.35 0.35 0.39 0.42 0.45 0.41 0.42 0.42 0.43 0.41 0.39 0.41 0.42 0.41 0.41 0.43 0.46 0.50
0.53 0.53 0.54 0.58 0.63 0.64 0.64 0.65 0.64 0.63 0.64 0.61 0.56 0.55 0.49 0.63 0.74 0.80 0.67 0.54 0.47 0.68 0.73 0.72 0.73 0.73 0.66 0.75 0.80 0.89 0.59 0.53 0.59 0.73 0.80 0.86 0.81 0.81 0.87 0.77 0.74 0.73 0.76 0.76 0.61 0.56 0.50 0.53 0.56 0.59 0.58 0.57 0.56 0.58 0.57 0.56 0.55 0.50 0.49 0.45 0.43 0.47 0.45 0.42 0.49 0.48 0.46 0.39 0.34 0.37 0.35 0.35 0.39 0.41 0.42 0.42 0.40 0.40 0.41 0.40 0.39 0.39 0.38 0.37 0.37 0.38 0.40 0.41
0.52 0.53 0.54 0.56 0.63 0.64 0.65 0.64 0.67 0.65 0.59 0.54 0.52 0.49 0.60 0.73 0.76 0.74 0.60 0.42 0.39 0.58 0.69 0.75 0.74 0.75 0.70 0.65 0.81 0.74 0.64 0.57 0.63 0.64 0.94 0.78 0.63 0.78 0.79 0.77 0.73 0.72 0.68 0.72 0.68 0.58 0.48 0.51 0.57 0.62 0.62 0.55 0.50 0.54 0.53 0.52 0.49 0.54 0.53 0.47 0.43 0.43 0.47 0.45 0.44 0.49 0.47 0.44 0.42 0.38 0.32 0.29 0.31 0.30 0.32 0.37 0.37 0.36 0.35 0.36 0.36 0.35 0.36 0.35 0.35 0.35 0.36 0.34
0.49 0.51 0.53 0.55 0.61 0.66 0.64 0.67 0.60 0.50 0.54 0.55 0.52 0.59 0.67 0.77 0.79 0.77 0.52 0.44 0.43 0.47 0.69 0.70 0.82 0.77 0.80 1.00 0.91 0.68 0.70 0.75 0.66 0.84 0.88 0.80 0.72 0.69 0.70 0.83 0.76 0.67 0.71 0.74 0.70 0.64 0.58 0.62 0.66 0.62 0.57 0.56 0.52 0.50 0.52 0.50 0.50 0.52 0.56 0.51 0.48 0.46 0.45 0.47 0.47 0.44 0.39 0.34 0.39 0.34 0.23 0.19 0.25 0.26 0.26 0.30 0.32 0.28 0.31 0.30 0.29 0.29 0.31 0.33 0.31 0.30 0.31 0.31
0.49 0.49 0.51 0.55 0.60 0.65 0.70 0.56 0.50 0.54 0.53 0.50 0.52 0.62 0.73 0.77 0.81 0.80 0.55 0.35 0.27 0.43 0.62 0.45 0.80 0.62 0.98 0.73 0.80 0.75 0.74 0.55 0.77 0.79 0.91 0.89 0.91 0.67 0.69 0.70 0.78 0.62 0.72 0.74 0.67 0.67 0.61 0.65 0.63 0.56 0.55 0.56 0.56 0.51 0.55 0.55 0.44 0.44 0.47 0.57 0.53 0.51 0.47 0.48 0.43 0.42 0.31 0.26 0.35 0.43 0.23 0.16 0.25 0.22 0.22 0.25 0.27 0.27 0.31 0.31 0.29 0.28 0.28 0.28 0.28 0.28 0.28 0.29
0.49 0.48 0.50 0.53 0.59 0.68 0.57 0.43 0.52 0.58 0.46 0.43 0.59 0.65 0.69 0.75 0.84 0.74 0.46 0.28 0.24 0.41 0.38 0.58 0.58 0.68 0.81 0.74 0.72 0.75 0.42 0.45 0.78 0.89 0.86 1.00 0.80 0.93 0.59 0.62 0.75 0.75 0.79 0.82 0.69 0.59 0.72 0.67 0.63 0.62 0.59 0.56 0.54 0.50 0.57 0.57 0.48 0.42 0.48 0.59 0.56 0.51 0.45 0.43 0.44 0.41 0.38 0.44 0.47 0.42 0.36 0.23 0.18 0.20 0.24 0.24 0.22 0.23 0.25 0.27 0.27 0.28 0.27 0.25 0.24 0.24 0.25 0.27
0.49 0.49 0.48 0.53 0.59 0.65 0.50 0.53 0.54 0.48 0.40 0.46 0.59 0.62 0.70 0.75 0.81 0.76 0.42 0.18 0.17 0.40 0.37 0.51 0.58 0.90 0.70 0.78 0.82 0.55 0.58 0.63 0.48 0.63 0.85 0.90 0.90 0.78 0.66 0.58 0.61 0.63 0.71 0.73 0.48 0.66 0.65 0.61 0.60 0.56 0.57 0.57 0.51 0.53 0.56 0.60 0.51 0.48 0.60 0.62 0.57 0.55 0.51 0.48 0.48 0.42 0.44 0.42 0.32 0.34 0.37 0.25 0.18 0.20 0.25 0.22 0.19 0.19 0.20 0.22 0.24 0.26 0.27 0.25 0.23 0.22 0.22 0.24
0.48 0.48 0.48 0.51 0.59 0.63 0.65 0.57 0.53 0.42 0.53 0.65 0.62 0.70 0.75 0.78 0.71 0.48 0.31 0.18 0.46 0.29 0.73 0.42 0.88 0.66 0.68 0.76 0.67 0.64 0.61 0.63 0.46 0.62 0.80 0.94 0.94 0.81 0.59 0.62 0.65 0.66 0.72 0.71 0.57 0.66 0.71 0.68 0.65 0.63 0.56 0.53 0.59 0.66 0.69 0.65 0.52 0.59 0.66 0.67 0.66 0.62 0.57 0.53 0.47 0.44 0.44 0.39 0.28 0.28 0.32 0.23 0.16 0.20 0.22 0.24 0.21 0.18 0.19 0.21 0.24 0.24 0.24 0.23 0.22 0.20 0.21 0.25
0.49 0.48 0.48 0.52 0.60 0.66 0.64 0.62 0.55 0.60 0.65 0.60 0.62 0.72 0.72 0.66 0.53 0.32 0.23 0.17 0.47 0.25 0.43 0.52 0.50 0.47 0.63 0.56 0.58 0.66 0.55 0.58 0.63 0.64 0.71 0.70 0.82 0.85 0.80 0.82 0.67 0.65 0.66 0.74 0.68 0.69 0.78 0.80 0.80 0.71 0.63 0.63 0.68 0.72 0.72 0.68 0.64 0.72 0.64 0.60 0.58 0.57 0.56 0.56 0.53 0.51 0.45 0.34 0.31 0.30 0.32 0.28 0.17 0.19 0.21 0.20 0.23 0.26 0.24 0.24 0.26 0.26 0.23 0.22 0.23 0.25 0.26 0.27
0.49 0.48 0.48 0.55 0.51 0.54 0.59 0.50 0.53 0.65 0.65 0.65 0.70 0.69 0.64 0.53 0.33 0.22 0.17 0.26 0.40 0.40 0.48 0.47 0.43 0.56 0.46 0.46 0.45 0.57 0.57 0.57 0.56 0.65 0.56 0.68 0.67 0.75 0.72 0.64 0.79 0.64 0.63 0.65 0.63 0.67 0.70 0.73 0.69 0.73 0.77 0.72 0.71 0.67 0.76 0.75 0.75 0.69 0.60 0.55 0.54 0.51 0.53 0.51 0.49 0.49 0.35 0.28 0.30 0.30 0.32 0.31 0.20 0.19 0.25 0.27 0.33 0.31 0.26 0.22 0.23 0.20 0.21 0.23 0.25 0.26 0.27 0.27
0.49 0.49 0.50 0.52 0.56 0.66 0.50 0.41 0.56 0.68 0.67 0.71 0.64 0.52 0.47 0.27 0.34 0.20 0.19 0.51 0.24 0.34 0.36 0.40 0.51 0.46 0.46 0.51 0.47 0.51 0.48 0.54 0.58 0.57 0.51 0.52 0.50 0.54 0.56 0.48 0.54 0.44 0.44 0.49 0.49 0.65 0.60 0.62 0.67 0.69 0.78 0.74 0.65 0.60 0.64 0.72 0.72 0.66 0.62 0.56 0.44 0.38 0.40 0.32 0.39 0.32 0.31 0.26 0.29 0.33 0.34 0.31 0.28 0.25 0.31 0.33 0.30 0.30 0.28 0.26 0.25 0.25 0.24 0.24 0.24 0.25 0.27 0.28
0.50 0.50 0.52 0.56 0.64 0.58 0.58 0.63 0.67 0.70 0.71 0.62 0.56 0.51 0.33 0.25 0.17 0.23 0.28 0.30 0.26 0.42 0.34 0.47 0.41 0.45 0.44 0.48 0.46 0.52 0.55 0.43 0.54 0.52 0.55 0.55 0.47 0.50 0.56 0.54 0.58 0.48 0.36 0.49 0.49 0.49 0.51 0.65 0.66 0.64 0.68 0.70 0.67 0.52 0.51 0.50 0.59 0.57 0.52 0.48 0.39 0.32 0.31 0.27 0.30 0.33 0.32 0.34 0.36 0.36 0.40 0.31 0.33 0.32 0.36 0.33 0.36 0.38 0.31 0.29 0.28 0.27 0.23 0.20 0.21 0.25 0.27 0.29
0.52 0.54 0.50 0.54 0.57 0.58 0.63 0.66 0.69 0.76 0.62 0.59 0.47 0.38 0.32 0.20 0.20 0.28 0.25 0.32 0.35 0.47 0.43 0.37 0.46 0.46 0.46 0.39 0.45 0.52 0.46 0.53 0.50 0.49 0.53 0.46 0.49 0.43 0.50 0.56 0.56 0.51 0.53 0.49 0.42 0.46 0.37 0.41 0.55 0.62 0.52 0.67 0.63 0.59 0.51 0.46 0.48 0.51 0.54 0.47 0.38 0.33 0.29 0.25 0.27 0.26 0.27 0.28 0.33 0.39 0.32 0.27 0.26 0.26 0.37 0.37 0.36 0.34 0.34 0.32 0.29 0.28 0.26 0.25 0.26 0.26 0.27 0.29
0.54 0.54 0.54 0.57 0.63 0.67 0.68 0.69 0.69 0.69 0.63 0.54 0.37 0.31 0.21 0.19 0.26 0.24 0.24 0.33 0.38 0.42 0.36 0.45 0.40 0.42 0.43 0.44 0.47 0.51 0.49 0.42 0.52 0.48 0.48 0.46 0.40 0.45 0.42 0.48 0.57 0.55 0.51 0.40 0.48 0.47 0.41 0.39 0.48 0.60 0.59 0.62 0.56 0.63 0.63 0.58 0.55 0.56 0.55 0.55 0.44 0.38 0.40 0.29 0.30 0.28 0.27 0.27 0.27 0.32 0.30 0.34 0.27 0.32 0.35 0.39 0.37 0.36 0.35 0.34 0.33 0.31 0.29 0.27 0.28 0.29 0.31 0.32
0.55 0.52 0.57 0.53 0.55 0.64 0.71 0.72 0.71 0.66 0.54 0.45 0.31 0.24 0.22 0.25 0.21 0.31 0.28 0.34 0.39 0.34 0.41 0.42 0.40 0.37 0.38 0.39 0.48 0.48 0.57 0.46 0.50 0.47 0.43 0.49 0.48 0.40 0.46 0.50 0.54 0.58 0.47 0.36 0.44 0.37 0.43 0.39 0.58 0.64 0.67 0.61 0.59 0.62 0.63 0.64 0.39 0.49 0.51 0.41 0.42 0.47 0.42 0.34 0.32 0.36 0.34 0.31 0.24 0.31 0.30 0.33 0.36 0.33 0.37 0.38 0.35 0.34 0.34 0.33 0.31 0.29 0.28 0.30 0.32 0.34 0.35 0.35
0.50 0.54 0.47 0.52 0.57 0.66 0.71 0.75 0.67 0.61 0.55 0.41 0.29 0.20 0.24 0.27 0.35 0.34 0.39 0.33 0.35 0.41 0.35 0.26 0.34 0.36 0.34 0.35 0.39 0.46 0.50 0.52 0.49 0.47 0.40 0.50 0.45 0.52 0.46 0.48 0.56 0.60 0.62 0.51 0.40 0.50 0.34 0.35 0.54 0.54 0.54 0.65 0.68 0.66 0.66 0.64 0.58 0.52 0.42 0.46 0.51 0.56 0.52 0.39 0.26 0.29 0.27 0.23 0.23 0.27 0.24 0.27 0.26 0.20 0.27 0.28 0.32 0.32 0.32 0.31 0.32 0.32 0.34 0.33 0.35 0.38 0.40 0.41
0.49 0.49 0.49 0.48 0.58 0.71 0.69 0.72 0.68 0.61 0.46 0.35 0.25 0.23 0.30 0.26 0.38 0.38 0.43 0.44 0.41 0.44 0.36 0.29 0.35 0.41 0.34 0.35 0.36 0.43 0.48 0.41 0.43 0.47 0.39 0.46 0.37 0.56 0.53 0.47 0.56 0.55 0.61 0.68 0.52 0.49 0.48 0.34 0.48 0.57 0.54 0.61 0.68 0.67 0.61 0.67 0.70 0.53 0.47 0.56 0.41 0.36 0.33 0.40 0.34 0.24 0.24 0.22 0.21 0.23 0.25 0.25 0.27 0.23 0.28 0.29 0.29 0.31 0.36 0.37 0.37 0.37 0.37 0.37 0.39 0.41 0.43 0.44
0.54 0.50 0.39 0.53 0.63 0.69 0.75 0.76 0.63 0.54 0.42 0.31 0.26 0.21 0.29 0.32 0.40 0.39 0.44 0.43 0.43 0.39 0.35 0.35 0.32 0.39 0.40 0.34 0.37 0.42 0.45 0.37 0.43 0.40 0.37 0.44 0.36 0.49 0.48 0.56 0.50 0.56 0.59 0.63 0.54 0.56 0.56 0.36 0.39 0.57 0.54 0.60 0.63 0.61 0.45 0.53 0.65 0.64 0.63 0.50 0.58 0.43 0.35 0.32 0.33 0.31 0.28 0.23 0.24 0.22 0.25 0.23 0.32 0.31 0.31 0.32 0.35 0.34 0.35 0.38 0.38 0.38 0.38 0.39 0.40 0.43 0.46 0.47
0.51 0.42 0.37 0.61 0.70 0.73 0.76 0.70 0.54 0.47 0.37 0.26 0.25 0.25 0.31 0.27 0.34 0.42 0.46 0.46 0.41 0.39 0.33 0.37 0.42 0.36 0.40 0.40 0.41 0.37 0.44 0.41 0.39 0.39 0.38 0.42 0.40 0.53 0.50 0.58 0.52 0.56 0.56 0.59 0.53 0.60 0.49 0.57 0.37 0.48 0.62 0.62 0.49 0.58 0.50 0.51 0.47 0.52 0.52 0.48 0.51 0.45 0.50 0.42 0.39 0.34 0.28 0.25 0.25 0.23 0.22 0.27 0.32 0.38 0.37 0.36 0.36 0.38 0.37 0.36 0.37 0.38 0.39 0.41 0.42 0.44 0.47 0.50
0.51 0.41 0.41 0.64 0.67 0.74 0.70 0.62 0.46 0.35 0.32 0.34 0.33 0.27 0.30 0.28 0.32 0.37 0.45 0.52 0.45 0.52 0.43 0.38 0.39 0.36 0.37 0.39 0.41 0.48 0.43 0.42 0.41 0.39 0.40 0.38 0.39 0.36 0.54 0.55 0.60 0.52 0.61 0.59 0.56 0.59 0.50 0.49 0.40 0.48 0.49 0.49 0.51 0.61 0.57 0.56 0.56 0.51 0.49 0.45 0.44 0.40 0.38 0.32 0.29 0.42 0.36 0.31 0.27 0.26 0.23 0.28 0.38 0.45 0.42 0.42 0.42 0.42 0.43 0.41 0.41 0.42 0.43 0.45 0.46 0.48 0.52 0.54
0.41 0.29 0.36 0.63 0.68 0.72 0.53 0.39 0.39 0.43 0.36 0.29 0.29 0.33 0.30 0.36 0.33 0.34 0.40 0.48 0.48 0.43 0.50 0.44 0.39 0.36 0.39 0.39 0.40 0.42 0.43 0.43 0.43 0.41 0.41 0.36 0.42 0.41 0.51 0.57 0.58 0.59 0.54 0.49 0.49 0.60 0.57 0.54 0.47 0.42 0.46 0.48 0.55 0.64 0.69 0.68 0.64 0.57 0.54 0.49 0.54 0.51 0.46 0.38 0.29 0.33 0.41 0.39 0.38 0.34 0.29 0.29 0.41 0.45 0.43 0.44 0.43 0.43 0.44 0.44 0.43 0.45 0.46 0.47 0.50 0.53 0.56 0.58
0.40 0.35 0.58 0.67 0.66 0.65 0.49 0.36 0.38 0.36 0.30 0.33 0.38 0.37 0.38 0.34 0.32 0.36 0.35 0.43 0.41 0.45 0.42 0.42 0.39 0.36 0.39 0.37 0.41 0.43 0.45 0.42 0.43 0.39 0.41 0.41 0.40 0.44 0.53 0.55 0.59 0.56 0.55 0.51 0.55 0.60 0.63 0.49 0.43 0.45 0.53 0.58 0.62 0.66 0.68 0.68 0.66 0.59 0.60 0.62 0.57 0.50 0.48 0.41 0.38 0.42 0.39 0.39 0.37 0.35 0.31 0.32 0.42 0.46 0.45 0.45 0.44 0.45 0.46 0.46 0.46 0.46 0.47 0.49 0.52 0.54 0.56 0.57
0.43 0.41 0.48 0.65 0.69 0.59 0.40 0.27 0.28 0.32 0.32 0.33 0.34 0.34 0.39 0.37 0.36 0.33 0.35 0.39 0.42 0.39 0.36 0.42 0.41 0.43 0.35 0.40 0.39 0.36 0.43 0.36 0.45 0.45 0.41 0.44 0.41 0.54 0.52 0.52 0.58 0.51 0.51 0.50 0.45 0.60 0.47 0.50 0.45 0.38 0.38 0.42 0.48 0.55 0.56 0.64 0.63 0.55 0.53 0.55 0.55 0.56 0.55 0.54 0.53 0.51 0.39 0.41 0.38 0.34 0.27 0.31 0.39 0.48 0.45 0.45 0.44 0.44 0.45 0.48 0.49 0.47 0.50 0.52 0.54 0.56 0.57 0.57
0.46 0.49 0.47 0.53 0.65 0.58 0.34 0.33 0.30 0.27 0.30 0.30 0.30 0.30 0.31 0.33 0.40 0.38 0.37 0.36 0.43 0.43 0.38 0.40 0.44 0.40 0.38 0.43 0.39 0.41 0.43 0.39 0.37 0.47 0.45 0.44 0.44 0.52 0.54 0.53 0.55 0.51 0.54 0.58 0.53 0.59 0.45 0.46 0.43 0.34 0.29 0.26 0.27 0.29 0.33 0.40 0.47 0.53 0.54 0.55 0.58 0.56 0.53 0.51 0.42 0.45 0.37 0.42 0.44 0.38 0.34 0.36 0.43 0.48 0.45 0.46 0.46 0.47 0.50 0.50 0.51 0.52 0.53 0.53 0.55 0.56 0.58 0.59
0.37 0.27 0.37 0.43 0.50 0.48 0.44 0.46 0.41 0.33 0.30 0.31 0.28 0.30 0.31 0.28 0.34 0.38 0.42 0.41 0.44 0.44 0.45 0.42 0.43 0.47 0.40 0.40 0.39 0.40 0.40 0.47 0.41 0.40 0.44 0.42 0.46 0.47 0.54 0.55 0.55 0.52 0.54 0.56 0.56 0.55 0.46 0.50 0.46 0.41 0.36 0.32 0.35 0.39 0.49 0.50 0.48 0.44 0.49 0.52 0.52 0.55 0.56 0.53 0.49 0.43 0.38 0.42 0.40 0.42 0.40 0.38 0.40 0.44 0.43 0.46 0.47 0.48 0.50 0.51 0.51 0.52 0.54 0.56 0.57 0.59 0.60 0.60
0.42 0.31 0.30 0.29 0.42 0.42 0.35 0.39 0.36 0.36 0.31 0.33 0.25 0.29 0.27 0.29 0.31 0.33 0.43 0.37 0.43 0.43 0.44 0.43 0.41 0.37 0.38 0.38 0.36 0.38 0.41 0.39 0.43 0.43 0.42 0.43 0.46 0.47 0.55 0.56 0.55 0.57 0.58 0.55 0.58 0.52 0.45 0.40 0.44 0.44 0.42 0.41 0.43 0.44 0.49 0.50 0.45 0.47 0.47 0.48 0.53 0.54 0.56 0.53 0.47 0.41 0.49 0.43 0.36 0.45 0.47 0.43 0.37 0.41 0.45 0.50 0.51 0.52 0.53 0.53 0.54 0.56 0.57 0.58 0.59 0.60 0.60 0.60
0.30 0.35 0.37 0.40 0.31 0.27 0.29 0.30 0.34 0.33 0.36 0.34 0.27 0.32 0.27 0.27 0.29 0.27 0.35 0.41 0.44 0.43 0.41 0.43 0.43 0.39 0.35 0.35 0.36 0.34 0.37 0.39 0.40 0.37 0.44 0.46 0.46 0.48 0.47 0.53 0.51 0.56 0.56 0.52 0.58 0.48 0.39 0.33 0.38 0.40 0.39 0.41 0.43 0.46 0.47 0.47 0.45 0.45 0.49 0.50 0.50 0.53 0.54 0.49 0.49 0.52 0.51 0.43 0.38 0.46 0.50 0.46 0.43 0.44 0.49 0.57 0.56 0.54 0.53 0.53 0.55 0.57 0.58 0.58 0.59 0.59 0.60 0.59
0.42 0.41 0.39 0.43 0.30 0.34 0.31 0.30 0.31 0.30 0.31 0.33 0.32 0.31 0.28 0.29 0.28 0.30 0.29 0.31 0.38 0.40 0.41 0.34 0.36 0.40 0.39 0.37 0.36 0.34 0.36 0.32 0.34 0.41 0.41 0.41 0.41 0.42 0.42 0.47 0.53 0.56 0.52 0.50 0.50 0.51 0.42 0.35 0.35 0.35 0.33 0.34 0.37 0.41 0.45 0.43 0.43 0.44 0.44 0.45 0.46 0.46 0.46 0.47 0.45 0.47 0.48 0.45 0.48 0.50 0.51 0.46 0.46 0.48 0.55 0.54 0.55 0.54 0.54 0.56 0.57 0.57 0.56 0.57 0.57 0.55 0.51 0.49
0.35 0.35 0.32 0.40 0.37 0.35 0.38 0.35 0.33 0.34 0.31 0.33 0.27 0.28 0.28 0.29 0.28 0.33 0.35 0.32 0.29 0.34 0.45 0.39 0.38 0.42 0.40 0.39 0.35 0.31 0.36 0.36 0.32 0.32 0.38 0.40 0.42 0.43 0.40 0.41 0.39 0.49 0.50 0.46 0.46 0.51 0.40 0.30 0.34 0.34 0.29 0.28 0.32 0.34 0.39 0.39 0.40 0.37 0.41 0.43 0.44 0.46 0.46 0.46 0.44 0.45 0.49 0.48 0.47 0.45 0.42 0.41 0.45 0.49 0.51 0.54 0.55 0.56 0.56 0.53 0.54 0.58 0.59 0.58 0.55 0.48 0.45 0.43
0.48 0.46 0.48 0.35 0.29 0.35 0.42 0.41 0.36 0.31 0.28 0.32 0.29 0.29 0.30 0.29 0.29 0.34 0.33 0.37 0.31 0.30 0.36 0.36 0.40 0.42 0.45 0.40 0.38 0.33 0.35 0.35 0.36 0.37 0.41 0.43 0.35 0.40 0.38 0.40 0.47 0.41 0.49 0.47 0.46 0.47 0.43 0.33 0.35 0.31 0.26 0.23 0.26 0.27 0.31 0.32 0.32 0.32 0.34 0.38 0.40 0.41 0.39 0.42 0.40 0.42 0.42 0.40 0.43 0.44 0.41 0.38 0.40 0.45 0.49 0.51 0.49 0.43 0.39 0.42 0.48 0.53 0.56 0.56 0.51 0.46 0.44 0.44
0.53 0.55 0.51 0.43 0.29 0.34 0.33 0.40 0.38 0.35 0.28 0.29 0.28 0.31 0.29 0.27 0.31 0.35 0.31 0.39 0.42 0.42 0.39 0.37 0.41 0.41 0.40 0.40 0.38 0.38 0.38 0.36 0.38 0.43 0.46 0.48 0.51 0.50 0.49 0.47 0.49 0.45 0.45 0.45 0.51 0.45 0.42 0.36 0.31 0.29 0.25 0.21 0.24 0.25 0.26 0.29 0.27 0.24 0.27 0.32 0.35 0.37 0.37 0.38 0.40 0.42 0.42 0.44 0.39 0.36 0.36 0.42 0.43 0.47 0.43 0.39 0.39 0.37 0.39 0.42 0.43 0.45 0.46 0.42 0.41 0.42 0.43 0.43
Wind_Speed
61 63 63 63 63 62 61 60 58 57 56 55 54 55 56 56 56 56 55 55 53 52 51 50 49 49 48 47 46 45 44 45 45 46 46 44 42 39 37 36 35 34 32 31 30 28 27 27 26 24 23 22 21 20 19 19 18 17 16 16 16 15 15 14 14 14 12 10 11 12 13 12 10 10 10 8 9 8 7 8 7 7 8 7 5 5 5 6
60 62 63 63 63 62 62 61 60 59 58 56 55 55 55 56 56 56 56 56 55 53 52 51 50 49 49 48 47 46 46 46 47 48 48 45 43 42 40 38 36 36 34 32 31 30 29 28 27 26 25 23 22 21 20 20 19 19 18 17 17 15 13 13 14 13 13 12 12 13 13 13 11 10 11 10 10 10 9 9 9 9 9 8 7 6 6 7
58 60 62 63 63 63 63 62 61 60 59 58 56 55 55 56 56 57 56 56 56 54 53 52 51 49 49 48 47 46 46 47 49 50 49 46 45 43 42 40 38 37 36 34 32 31 31 29 28 27 26 25 23 22 22 21 20 20 19 18 17 16 13 13 14 13 13 12 13 13 13 14 12 10 11 11 11 10 10 10 9 10 9 9 9 8 8 8
57 58 60 62 63 63 63 63 62 60 60 59 57 56 56 56 56 56 57 57 56 55 54 53 52 50 49 48 47 47 46 46 49 50 48 47 47 45 43 42 40 38 37 35 33 33 32 31 30 29 28 26 25 24 24 22 21 21 21 20 17 16 16 15 15 14 13 13 14 13 13 14 14 12 12 12 12 11 11 11 10 10 9 9 10 9 9 9
56 57 59 61 62 63 63 64 63 61 60 59 58 57 56 56 56 56 56 57 56 56 55 54 52 51 50 48 46 46 45 44 46 49 49 48 48 47 45 43 41 40 38 37 35 34 33 32 31 30 29 28 27 25 26 25 22 22 22 22 19 17 17 15 15 15 14 14 15 15 14 14 13 14 14 14 13 11 9 9 10 9 8 8 9 9 9 10
55 56 58 59 61 62 63 63 63 62 61 60 59 58 57 56 56 56 56 56 57 56 56 55 53 52 51 49 47 46 46 44 41 42 47 50 48 47 46 44 43 41 40 38 37 35 34 34 32 32 31 29 29 27 27 26 24 23 23 23 22 20 19 16 15 15 15 16 16 16 15 14 14 15 16 16 16 13 9 9 9 9 8 8 9 9 10 11
54 56 57 58 60 61 62 63 64 63 61 60 60 59 57 56 56 56 56 56 56 56 56 55 54 54 52 50 48 47 49 48 41 36 40 47 49 48 47 45 44 42 41 40 39 37 35 35 35 33 32 31 30 29 28 27 26 26 24 23 23 23 21 18 17 16 17 17 16 16 16 16 17 16 15 16 17 16 14 12 11 11 10 10 11 11 11 11
53 54 55 56 58 60 61 63 64 63 62 61 60 59 58 57 56 55 56 56 56 56 56 55 55 55 53 51 50 49 50 51 45 39 36 41 46 47 47 46 45 44 43 42 40 38 37 37 36 34 33 32 31 30 29 28 27 28 27 24 23 24 23 20 19 18 18 18 17 17 18 18 18 16 16 17 17 17 16 15 14 14 13 13 12 12 12 12
52 53 54 55 56 58 59 61 63 64 62 61 60 60 59 58 57 56 56 56 55 55 55 55 55 55 54 53 51 50 52 51 47 43 39 38 42 46 47 46 46 45 44 43 41 40 39 38 37 36 34 33 32 31 30 29 28 28 29 28 25 25 25 22 22 21 20 19 18 19 20 20 18 16 18 19 19 18 16 16 16 16 15 15 14 14 14 14
50 51 52 53 55 56 58 59 61 64 63 62 61 60 59 58 57 56 56 56 56 55 55 55 55 55 54 54 53 51 51 51 48 46 43 40 41 44 46 46 46 46 45 44 43 42 40 38 37 36 35 33 33 33 32 31 29 27 29 29 27 27 26 24 24 23 21 21 21 21 21 20 18 18 18 18 18 18 17 17 17 17 16 16 16 16 15 15
49 50 51 52 53 54 57 58 59 62 63 62 62 61 60 59 58 56 56 56 56 55 54 55 55 55 55 55 56 53 49 50 50 49 46 44 43 44 46 46 46 47 47 45 44 44 42 40 37 36 35 33 33 33 33 33 31 28 28 28 29 28 28 26 26 25 23 22 23 22 23 23 21 20 20 19 17 16 17 17 17 17 17 17 17 16 16 16
48 49 49 50 51 52 54 57 58 60 61 62 62 61 61 60 58 57 56 55 56 55 54 54 54 54 55 56 58 55 50 48 49 49 49 48 47 46 45 46 46 47 47 46 45 44 43 41 39 38 35 33 33 33 33 33 32 31 29 29 29 29 30 29 28 27 25 24 23 22 23 25 24 23 23 22 20 19 18 18 17 17 17 17 17 17 16 17
46 47 48 49 49 50 52 55 57 59 59 60 61 61 61 60 59 58 56 55 55 55 55 54 54 53 54 56 57 56 52 49 49 49 49 49 50 48 46 47 47 47 46 46 45 44 44 42 41 41 37 35 34 32 31 33 33 33 31 31 30 30 31 31 31 29 28 25 23 23 24 24 24 25 25 25 24 23 22 21 19 19 18 18 18 17 17 17
45 46 47 48 48 49 50 52 55 57 58 59 60 61 61 61 59 58 57 55 55 55 55 54 53 52 53 56 55 55 54 52 51 51 49 48 50 50 48 47 47 47 46 45 45 44 44 43 41 40 37 36 35 33 32 32 33 33 33 32 31 32 31 30 31 30 29 26 24 25 26 24 23 22 22 23 24 24 23 23 22 21 20 20 19 19 19 18
43 45 46 47 48 48 49 51 53 55 57 58 59 59 60 61 59 58 57 55 54 54 54 53 53 50 50 53 54 54 55 54 53 53 51 48 48 49 49 48 48 47 47 45 44 43 43 42 41 40 37 35 35 35 34 33 33 33 34 34 33 33 31 28 30 31 30 27 27 28 26 25 25 25 22 21 23 24 24 24 23 23 22 22 21 20 20 19
42 43 45 46 47 48 48 49 51 53 55 57 58 58 60 61 59 58 57 56 54 54 53 52 53 51 47 48 51 53 55 56 55 53 51 49 48 48 48 48 47 47 46 44 43 43 42 42 41 40 38 36 36 37 36 34 34 35 35 36 34 34 33 30 30 32 31 28 29 30 28 25 24 25 24 22 23 24 24 25 25 25 24 24 23 22 21 20
39 42 44 45 46 47 48 48 49 51 53 55 56 56 58 60 59 58 57 56 54 53 52 50 51 51 48 47 48 52 55 55 54 53 51 50 48 47 47 47 47 47 46 44 44 43 43 42 41 40 39 39 38 38 37 37 38 36 36 38 37 35 34 33 30 31 32 30 30 31 31 30 26 24 24 23 24 25 25 25 25 25 25 25 24 23 23 22
37 39 42 44 45 46 47 48 48 49 51 53 54 55 56 58 58 57 57 56 53 51 51 49 48 47 47 50 50 50 54 54 53 52 51 49 48 47 47 46 46 46 45 43 44 44 44 42 42 41 41 42 42 41 41 41 39 37 37 38 38 37 36 35 31 29 32 32 32 32 31 32 31 29 28 27 27 27 27 27 26 26 26 25 25 25 24 24
35 37 39 42 44 45 46 47 48 48 49 51 53 53 54 55 56 56 57 56 53 50 49 49 50 46 44 50 53 50 51 54 53 52 51 49 48 47 46 45 45 45 44 43 44 46 45 43 43 44 44 46 46 46 46 42 39 39 39 37 37 37 37 36 32 29 31 31 32 33 32 32 32 32 31 31 30 29 29 29 28 28 27 27 27 26 26 26
34 36 37 40 42 44 45 47 47 48 49 49 50 51 52 53 53 53 56 56 55 52 49 50 54 52 45 44 51 51 49 53 55 53 52 50 48 47 45 45 44 44 44 44 45 46 47 46 46 47 47 48 48 48 47 42 40 40 39 38 38 37 35 35 34 32 31 31 31 33 33 33 33 33 32 32 32 31 31 30 29 29 28 28 28 28 27 27
34 35 36 38 40 42 44 46 47 47 48 48 50 51 52 54 52 51 54 55 57 55 50 48 52 55 50 42 45 51 49 50 54 55 54 51 48 46 45 44 43 43 44 45 44 45 47 49 50 50 49 48 47 47 47 44 43 41 38 37 37 37 35 34 35 34 33 33 33 33 34 35 34 33 33 33 33 33 32 31 30 30 29 29 29 29 28 28
34 34 35 37 39 41 43 45 46 47 48 48 51 52 52 55 52 49 51 53 56 57 52 48 49 53 54 47 44 49 49 47 49 54 56 52 49 46 44 43 43 43 43 45 44 45 48 50 51 51 49 47 46 47 47 47 45 41 39 38 36 35 34 33 33 34 33 33 34 34 35 35 35 34 35 35 35 34 33 33 32 31 31 30 29 29 29 28
33 34 35 36 38 40 42 44 45 46 47 48 50 52 52 54 52 48 48 49 52 56 54 50 49 50 54 52 47 48 51 50 47 50 55 55 51 47 44 42 43 44 44 45 46 47 49 51 52 50 48 48 48 48 48 47 45 42 39 39 38 35 34 32 32 34 34 34 34 34 35 37 36 36 36 37 37 36 35 35 34 33 32 31 30 30 29 29
33 34 34 36 37 39 41 43 44 46 48 48 49 51 51 50 51 49 46 46 48 52 55 53 50 49 52 51 50 49 50 51 49 49 52 55 53 48 45 43 43 44 45 47 48 49 50 49 49 49 48 50 50 49 48 46 45 44 42 41 41 38 36 34 31 32 33 34 35 34 36 38 38 38 38 37 37 38 37 36 35 34 33 32 31 31 30 30
34 34 34 35 36 38 40 42 44 46 46 48 48 49 50 48 48 48 44 44 47 49 52 53 50 49 50 49 50 49 47 48 50 50 51 53 53 49 45 43 43 43 44 47 48 48 49 47 46 50 51 52 50 48 48 46 44 44 43 44 43 41 38 36 34 32 32 33 33 32 34 36 36 36 36 34 35 36 36 36 36 35 33 32 32 31 31 30
34 34 34 34 36 37 39 40 43 45 45 46 47 48 49 47 46 46 42 41 46 49 49 52 50 49 50 49 49 47 45 47 48 50 51 51 51 49 47 44 42 43 42 42 43 43 45 46 47 50 52 51 50 48 48 47 46 45 43 43 44 42 40 38 37 36 35 34 31 30 33 35 34 35 34 32 32 33 34 34 35 34 33 32 31 30 30 30
34 34 34 34 36 38 38 38 41 44 44 45 46 46 47 47 45 43 39 37 43 49 49 49 49 49 51 50 50 47 45 45 45 49 52 50 49 47 48 47 42 42 41 38 39 40 42 46 48 50 51 50 50 49 48 48 46 44 42 41 42 43 42 39 38 37 36 33 32 32 33 35 37 37 36 35 35 34 34 35 34 33 32 31 31 30 30 29
34 34 34 34 36 39 39 36 39 43 44 42 44 46 46 47 44 40 37 34 38 45 48 48 48 49 49 50 52 49 45 44 44 48 51 50 48 46 48 50 46 43 42 40 39 38 41 46 48 50 51 50 50 49 48 48 46 42 39 39 39 40 41 39 38 37 35 34 35 36 33 34 38 37 34 37 38 37 36 35 34 33 32 32 31 31 30 30
35 34 34 34 36 39 39 37 38 42 42 41 42 45 45 45 43 38 36 33 33 40 46 48 48 48 47 49 53 51 47 45 44 46 49 48 47 45 45 49 48 44 42 42 41 36 36 42 45 47 48 47 47 46 45 47 45 41 37 37 37 37 39 38 37 36 35 35 38 38 35 34 37 36 33 34 36 37 35 34 33 33 32 32 31 31 30 29
35 34 34 34 35 38 39 39 39 40 40 41 42 44 44 44 42 38 35 33 33 36 41 46 48 48 48 48 50 51 50 47 44 45 47 47 46 44 43 44 46 45 43 41 41 37 33 35 40 43 43 44 44 43 44 45 43 40 38 37 36 35 36 37 37 35 34 36 40 41 38 36 37 35 32 33 33 32 31 30 30 31 32 31 31 30 29 28
35 35 34 35 35 36 38 39 40 40 40 42 43 44 43 41 42 40 34 31 33 36 39 43 47 48 49 50 49 51 51 48 46 46 46 45 45 44 43 42 43 44 44 41 40 38 36 34 37 40 42 42 42 41 42 41 40 39 38 37 35 33 34 35 35 35 35 37 40 42 42 41 40 36 31 30 30 29 29 30 30 29 29 28 28 27 27 27
35 35 34 35 35 36 38 38 39 40 40 43 43 43 42 39 40 41 34 29 32 38 40 41 44 46 47 49 49 51 51 49 48 47 46 46 45 45 45 44 43 43 43 43 40 38 38 37 36 38 41 40 39 39 39 37 39 39 37 36 35 33 33 36 36 36 37 38 37 36 38 41 44 42 37 34 32 31 30 29 28 26 25 25 25 26 26 27
36 34 34 35 35 36 38 37 38 40 41 43 43 41 42 39 39 42 40 33 29 33 40 41 43 45 45 46 47 50 50 49 49 48 47 47 46 47 48 47 47 44 41 43 44 40 38 38 38 38 39 40 39 39 39 39 41 43 40 39 38 35 35 37 38 36 37 39 38 35 35 38 41 43 43 42 40 36 34 32 30 29 28 28 28 28 27 27
35 34 33 35 36 36 38 38 39 41 41 43 42 40 42 39 37 42 45 38 29 30 38 42 42 43 43 43 45 48 47 48 49 48 46 47 46 47 49 49 50 46 40 41 44 43 40 38 40 41 39 41 42 41 40 40 42 44 42 41 40 39 38 37 36 36 36 38 39 38 36 36 38 39 39 41 42 41 39 37 36 34 32 31 30 30 29 29
34 34 33 34 35 36 38 39 40 42 42 41 40 40 43 41 38 41 44 40 33 32 38 41 42 41 40 40 43 47 47 45 48 48 46 47 47 48 48 48 50 48 44 42 40 42 42 39 39 40 40 42 43 41 40 38 39 40 41 41 42 42 41 37 34 35 35 36 37 38 38 37 38 38 36 36 37 38 38 38 37 36 35 33 32 31 30 31
33 33 33 34 36 37 38 39 41 43 42 39 39 41 43 43 39 39 41 41 36 35 37 40 42 40 38 37 39 45 45 43 45 47 46 47 47 49 48 47 49 49 47 45 42 41 41 38 38 38 40 43 43 41 41 39 37 38 40 42 41 41 42 39 34 33 34 35 37 38 40 39 39 40 40 39 37 37 38 38 38 37 36 34 32 31 31 31
32 32 32 34 35 36 39 40 40 42 41 38 39 42 43 43 41 37 38 40 39 37 38 40 41 39 37 36 37 41 43 41 42 43 44 45 44 46 48 47 48 49 46 43 42 42 41 39 40 40 40 43 43 40 41 40 37 37 40 40 37 36 38 38 35 33 33 36 37 39 42 40 39 39 39 40 41 39 38 37 37 35 34 32 31 31 32 32
30 31 31 33 35 36 38 40 40 40 39 37 40 43 42 42 43 39 37 39 39 38 37 39 41 39 37 36 36 39 42 42 42 41 41 42 42 43 45 45 47 49 45 40 37 39 40 38 39 42 41 41 41 40 40 39 37 37 39 39 36 35 36 37 37 36 36 36 37 41 44 42 41 40 36 36 39 40 37 35 34 33 32 32 32 32 32 32
28 28 29 32 35 36 37 39 40 38 37 37 41 41 40 40 42 42 39 38 40 40 37 37 39 39 38 37 36 38 42 44 43 42 41 41 41 43 43 42 43 47 48 43 37 36 37 37 37 40 40 38 38 40 41 40 37 36 37 38 36 35 36 38 38 37 37 36 36 39 41 41 42 43 41 38 38 38 37 36 35 34 34 34 33 32 32 31
26 25 26 32 35 35 37 38 37 37 36 37 39 38 38 40 41 43 42 39 39 39 39 38 37 37 38 37 36 37 41 45 45 44 43 42 41 43 43 41 41 45 46 46 42 37 36 36 34 35 37 37 38 40 42 42 40 38 38 38 37 36 36 37 39 39 38 37 36 37 38 38 38 39 41 42 39 38 37 37 37 37 36 35 34 33 31 30
25 24 24 30 35 35 36 35 34 35 35 36 38 37 36 39 41 43 43 41 39 37 38 41 39 37 35 36 35 34 36 41 45 43 42 43 42 42 44 43 41 42 43 43 43 39 36 36 34 33 36 38 39 38 39 41 40 38 38 38 38 38 36 35 37 39 39 38 37 36 38 38 36 35 38 40 40 39 38 37 36 35 34 34 33 32 30 29
24 23 23 29 34 36 35 32 30 33 35 36 37 36 36 38 40 43 42 41 41 39 37 40 41 39 37 34 33 33 33 36 42 43 41 43 44 41 44 46 44 43 42 40 41 39 35 35 35 33 35 36 36 36 35 37 39 39 38 38 37 37 36 36 35 36 37 38 37 36 38 38 35 34 35 36 36 36 35 35 34 32 32 32 31 31 29 29
23 22 22 27 33 35 33 31 30 32 34 34 35 35 37 38 39 41 42 40 40 40 38 38 40 41 40 37 34 33 31 32 37 42 41 42 44 40 42 46 45 44 43 41 41 39 34 33 33 32 33 35 35 36 35 35 37 39 38 38 38 38 39 38 34 32 32 35 35 34 36 37 36 35 34 33 32 31 31 32 32 32 32 32 32 31 30 30
21 20 21 26 32 33 32 31 32 33 33 33 34 35 36 38 39 40 42 41 39 40 41 39 38 40 40 39 37 35 33 30 33 39 40 40 40 37 39 46 46 44 44 43 43 41 36 33 32 29 29 31 32 33 34 35 36 38 38 39 40 40 39 36 33 31 31 32 35 33 33 36 36 34 34 33 33 33 32 32 33 33 33 33 33 33 32 33
20 20 21 24 29 32 30 29 31 33 33 33 35 36 36 37 39 40 40 41 39 39 41 40 38 38 39 39 37 36 35 30 29 33 37 39 38 35 38 44 46 44 44 44 45 44 41 37 35 31 28 27 29 31 32 34 36 36 38 40 41 41 40 37 35 35 32 32 34 34 34 35 34 33 35 35 35 36 35 33 34 34 34 34 34 34 34 34
20 21 21 22 25 29 29 27 29 31 32 33 34 36 38 38 39 39 39 39 38 37 38 40 39 37 38 39 37 37 37 32 28 29 33 36 37 36 37 40 43 44 43 44 45 43 41 40 40 38 34 30 28 28 29 31 33 35 37 40 41 41 41 39 37 37 35 33 36 37 36 36 36 35 36 35 35 36 35 34 33 32 33 33 33 34 34 34
20 21 22 22 23 26 28 28 29 30 31 33 33 35 39 39 38 39 39 38 38 37 36 37 41 42 41 40 38 37 37 34 30 29 31 33 34 35 36 37 40 42 41 43 45 43 42 43 43 42 41 38 32 28 28 29 32 34 35 36 37 38 38 38 37 36 34 33 35 36 35 36 38 38 37 34 32 33 33 32 32 31 32 32 32 32 33 34
20 20 22 23 23 25 27 28 30 31 32 33 33 33 37 40 40 40 40 38 37 38 36 35 40 44 45 42 38 38 38 35 33 31 31 31 31 34 35 36 38 40 39 40 43 42 42 44 46 45 44 43 39 35 33 32 32 34 34 35 35 35 36 37 37 36 34 34 33 32 32 35 37 36 34 32 30 30 31 32 32 32 33 33 33 34 34 34
19 19 20 23 23 24 26 27 29 31 32 33 33 34 36 39 40 41 41 39 37 38 38 36 37 42 46 45 40 38 39 37 34 33 32 31 31 33 34 35 37 40 41 41 42 42 41 43 46 48 47 47 46 42 38 37 36 36 36 36 36 36 36 37 37 37 36 36 35 33 33 35 36 33 31 31 31 33 35 35 35 36 36 35 35 35 35 34
18 18 20 22 23 23 24 26 28 29 31 33 34 35 36 38 40 40 40 41 40 38 38 38 37 39 44 47 45 42 41 39 35 32 31 31 31 31 33 35 36 38 41 41 41 43 43 43 45 46 46 48 50 47 44 43 41 40 40 40 39 39 39 38 37 36 35 35 36 36 36 37 37 35 34 33 33 35 37 36 36 36 36 35 34 34 34 35
18 18 19 21 23 24 23 24 26 28 30 32 34 34 35 39 41 39 39 42 42 39 38 39 38 37 39 45 47 45 43 42 36 30 28 29 29 30 31 32 33 36 38 38 39 40 42 43 43 44 43 45 48 49 48 46 45 45 45 43 41 40 40 40 38 37 37 36 36 36 36 37 36 34 34 34 34 35 36 35 34 34 34 34 34 34 34 35
18 18 19 20 23 25 24 24 25 28 30 31 33 33 35 38 40 39 39 40 41 39 38 38 38 36 37 42 47 46 44 41 37 31 28 28 28 27 28 29 31 33 34 35 35 36 38 39 40 40 40 42 45 47 47 45 45 46 46 45 44 43 43 42 42 41 40 39 38 38 37 37 35 33 33 35 36 36 35 35 35 35 34 34 35 35 35 35
Wind_Direction
229 227 226 226 226 226 226 225 225 225 225 226 225 225 225 224 224 225 225 224 224 224 224 224 224 224 223 223 224 225 225 226 227 226 226 226 225 224 224 225 225 225 226 227 226 226 227 227 227 227 227 227 227 228 228 228 229 228 227 229 230 231 233 230 227 226 230 231 223 219 222 228 224 218 223 225 229 232 231 230 228 229 229 230 223 219 216 209
230 228 226 226 226 225 225 225 225 225 225 225 225 225 225 224 224 224 224 224 224 224 223 224 224 224 223 223 224 225 226 227 228 228 227 225 225 224 224 225 225 224 225 226 225 225 226 227 226 226 227 227 226 227 227 226 227 227 228 229 230 232 233 229 229 229 229 232 227 223 225 230 230 221 219 226 228 223 230 231 228 234 233 228 224 223 218 215
230 229 227 225 225 225 224 224 224 224 224 225 225 225 225 224 224 224 224 224 224 224 224 224 224 224 224 224 224 225 226 229 230 229 227 225 224 224 224 225 225 224 225 226 225 225 226 227 227 226 227 228 226 226 226 225 225 227 228 230 230 233 233 231 233 230 228 231 229 226 227 231 232 226 221 228 233 227 232 232 227 233 234 228 225 224 221 220
229 229 227 226 225 225 224 223 223 224 224 224 224 224 225 224 224 223 224 224 224 224 224 224 223 224 224 224 224 225 227 230 231 229 227 225 224 224 224 224 224 224 225 226 226 226 227 228 228 227 227 228 226 227 227 224 224 227 228 229 232 234 233 234 236 231 228 233 233 228 229 232 230 228 227 230 234 234 236 235 230 233 235 229 223 225 225 224
229 228 227 226 225 225 224 223 223 223 224 224 224 224 224 224 224 223 223 223 223 223 224 223 223 223 223 222 223 224 225 230 231 228 227 225 223 223 223 223 224 224 225 226 226 226 226 227 227 227 228 228 226 227 228 225 225 230 230 230 234 235 234 233 235 233 231 234 234 231 232 231 228 229 230 230 232 234 237 237 234 236 240 231 220 226 231 230
228 228 227 226 225 225 224 223 223 222 223 223 223 223 223 224 224 223 223 223 223 223 223 223 222 222 222 221 222 222 222 227 229 227 226 224 222 222 222 223 223 223 224 225 225 225 225 226 226 226 227 228 227 228 229 226 226 230 231 231 233 235 235 232 232 234 234 233 233 233 235 232 231 233 231 230 232 235 238 240 240 239 242 235 226 231 235 235
228 228 227 226 226 225 224 223 222 222 222 223 223 222 223 223 223 223 223 223 223 222 222 223 222 221 221 221 222 223 222 225 226 226 225 222 220 221 221 222 222 222 223 224 224 223 224 225 225 226 227 229 229 229 229 226 226 230 232 231 232 233 234 232 230 233 235 234 234 236 237 235 234 236 232 231 234 237 241 241 241 241 241 239 234 236 238 240
227 227 227 226 226 225 224 224 222 222 222 222 222 222 222 222 222 223 222 223 222 222 222 222 222 221 220 221 222 223 223 224 225 226 225 220 219 219 220 221 221 222 223 223 223 223 224 225 225 226 227 229 229 229 229 227 228 230 231 233 233 232 233 232 230 232 234 235 236 237 237 236 235 238 240 238 238 239 240 239 242 244 245 244 240 239 242 243
227 227 226 226 225 224 224 223 222 221 221 222 221 221 221 222 222 222 222 222 222 222 221 222 222 221 220 221 223 225 225 223 224 226 225 221 219 218 219 220 221 221 222 223 223 223 223 225 226 226 229 230 229 230 228 228 230 230 231 233 233 232 233 232 232 232 233 235 236 236 238 237 234 239 243 241 240 240 238 238 242 245 246 246 244 243 245 245
226 226 226 226 225 224 223 223 222 221 222 222 221 220 221 221 221 221 221 222 222 222 221 221 221 221 220 221 223 226 226 223 224 226 225 222 220 218 219 221 221 221 222 223 223 223 224 225 226 228 230 231 230 230 229 229 231 232 232 232 233 234 233 233 234 233 233 236 237 239 240 238 232 235 240 239 237 237 238 240 242 243 245 246 245 244 246 246
226 225 225 225 225 224 223 223 222 221 222 222 221 220 220 221 221 221 221 221 221 222 221 221 221 221 221 222 224 225 225 223 225 226 225 223 221 221 221 222 222 222 222 222 223 223 224 226 227 228 230 231 230 231 231 230 232 233 233 232 233 235 234 233 235 234 234 236 237 240 244 241 235 233 237 239 237 235 237 241 241 242 244 245 245 244 245 247
226 225 225 225 225 224 223 222 222 222 222 221 221 220 220 220 220 220 220 221 221 221 221 221 221 221 223 224 225 225 225 224 225 226 226 225 223 223 223 222 223 223 223 223 223 223 224 225 226 227 228 230 231 232 233 231 231 233 232 233 234 235 236 234 234 235 235 235 234 239 245 243 238 236 238 239 240 238 239 243 243 243 244 245 245 245 244 247
226 225 225 225 224 224 223 222 222 222 221 221 221 220 220 220 220 220 220 221 221 221 221 221 221 222 223 225 225 225 225 225 225 225 226 225 224 224 224 223 223 224 224 224 224 223 223 224 226 227 228 230 230 231 233 230 230 232 232 235 236 235 237 235 234 234 234 234 232 235 243 242 239 239 238 237 238 240 241 243 245 245 245 246 246 246 245 245
226 226 225 225 224 224 224 222 222 221 221 221 220 220 220 219 219 219 220 221 221 221 221 221 221 222 224 226 226 225 225 225 225 224 224 224 223 222 224 223 223 223 223 224 225 223 223 223 224 226 228 230 230 231 232 230 229 231 232 234 234 235 237 234 232 231 232 234 231 234 241 241 240 239 237 236 237 239 241 244 245 246 246 247 248 247 247 246
226 225 225 224 224 223 223 223 222 221 221 220 220 220 219 218 218 219 219 220 220 220 220 220 221 222 225 227 226 224 224 224 224 223 222 221 221 221 222 222 222 223 222 223 224 223 222 221 223 225 226 228 229 230 230 230 230 230 231 232 232 234 236 234 231 230 232 234 230 233 240 241 241 241 239 238 237 238 242 245 246 247 247 248 249 249 249 248
226 225 225 224 223 223 223 222 222 221 220 220 219 220 219 218 218 218 219 219 220 219 219 220 220 221 225 226 224 222 221 222 223 221 220 221 221 220 220 221 221 222 223 223 223 222 222 222 224 225 224 226 228 228 229 230 230 229 229 232 232 233 234 233 233 232 233 233 230 232 239 241 240 240 240 238 239 241 244 246 247 248 248 249 251 251 251 250
226 225 224 224 223 223 222 221 221 220 219 219 218 219 218 218 217 218 219 219 219 219 219 220 220 220 225 225 222 221 220 220 221 220 219 220 220 219 218 219 221 221 222 222 222 221 222 222 224 225 225 226 226 226 227 227 227 227 229 232 233 234 234 232 233 232 231 233 232 234 239 242 241 240 240 238 239 242 245 247 248 248 248 249 251 252 252 251
226 225 224 223 223 222 221 221 220 220 219 218 217 218 218 217 217 218 219 218 219 219 219 220 218 219 223 223 221 221 219 218 218 218 218 218 219 218 217 219 219 220 220 221 221 220 220 222 223 224 224 224 224 223 225 226 226 226 228 232 233 234 234 233 234 233 230 233 235 236 239 242 243 243 244 243 241 242 246 247 248 249 249 250 251 252 252 253
226 225 224 223 222 221 221 220 219 218 218 217 216 216 216 216 217 219 218 217 217 217 218 216 214 217 222 221 221 221 219 217 217 217 217 216 217 217 218 219 218 218 219 220 221 219 219 220 222 223 223 222 222 223 226 228 228 229 231 232 234 234 235 234 236 234 230 233 236 238 241 242 243 244 245 246 245 245 247 247 248 249 250 251 252 253 254 254
226 226 224 223 222 220 220 219 218 217 216 216 215 214 214 213 214 217 216 216 217 217 218 217 215 218 222 221 219 219 218 217 217 217 215 215 215 216 217 218 217 218 220 219 220 219 218 220 221 222 222 222 223 224 227 229 230 232 233 233 233 235 235 234 235 234 232 235 238 239 242 244 244 244 245 246 247 247 248 249 248 249 250 251 252 253 254 254
226 226 224 223 221 220 219 218 217 215 214 214 213 212 213 211 212 215 213 216 218 218 220 220 217 218 220 222 218 216 217 217 217 216 215 214 214 215 217 217 217 220 220 219 219 219 220 222 223 222 223 224 224 225 227 228 230 233 233 232 233 234 236 236 235 235 235 239 242 243 245 245 245 245 246 246 247 247 249 250 250 250 251 252 253 253 254 254
226 226 224 223 221 220 219 217 216 214 213 213 213 213 213 212 214 216 214 217 219 218 219 220 219 219 219 221 219 215 217 218 216 215 214 213 213 215 216 216 218 220 219 218 219 219 221 224 223 223 224 224 225 225 226 228 229 231 233 232 232 234 236 237 237 236 237 241 244 245 247 247 247 246 246 247 248 248 249 250 251 251 252 253 253 253 254 255
226 225 224 223 221 219 218 216 215 213 213 213 213 214 213 213 215 216 215 218 219 218 219 218 218 219 218 219 219 216 217 218 217 214 213 213 214 215 216 217 219 219 218 218 219 220 222 224 223 223 223 223 225 225 225 227 228 230 231 231 232 233 234 237 238 238 239 242 245 247 249 249 249 248 247 247 248 249 249 250 251 251 251 252 253 254 254 255
226 225 224 222 220 219 217 215 214 213 213 213 214 213 212 213 214 214 215 218 220 219 218 218 219 219 218 217 217 217 218 219 218 215 213 213 214 214 216 218 218 219 219 218 219 222 224 225 223 223 223 223 224 224 224 225 227 229 230 232 233 233 234 238 240 240 241 243 245 248 252 251 249 249 249 248 247 248 248 248 249 250 250 251 252 253 253 254
225 224 224 222 220 218 215 214 214 213 212 212 213 212 211 212 212 212 215 218 220 218 217 218 219 220 218 216 216 216 219 221 219 216 214 213 213 214 217 218 218 219 219 218 220 223 226 224 221 222 223 223 224 224 224 225 228 230 231 232 234 235 236 238 240 241 243 246 244 244 250 250 247 247 248 247 246 246 247 247 248 249 249 250 251 252 252 253
224 223 223 221 219 216 214 214 213 212 211 212 212 209 209 210 209 211 214 219 220 217 214 215 218 218 216 215 214 214 219 221 218 216 214 214 214 214 216 218 220 220 219 219 221 225 226 223 221 222 223 223 224 225 224 224 228 232 232 232 234 236 237 237 239 241 245 248 244 240 247 251 249 246 246 246 244 245 247 247 247 247 248 249 250 251 252 252
223 222 222 220 218 214 213 214 211 210 211 211 209 208 208 208 207 208 213 220 221 216 213 214 216 215 214 214 211 212 218 217 215 216 214 213 215 215 217 217 219 221 219 219 222 224 223 221 221 222 222 222 223 225 224 223 228 232 233 232 232 234 236 238 239 241 245 248 245 241 246 252 252 248 247 247 247 246 247 248 248 247 247 248 250 251 252 252
222 221 220 219 217 213 213 212 209 210 211 209 207 206 206 204 204 206 211 220 219 214 213 214 215 214 214 213 211 214 218 213 215 217 213 214 215 216 218 217 217 219 218 218 222 223 220 220 221 220 221 223 224 225 224 223 228 231 232 231 231 233 236 237 239 242 244 247 246 243 243 249 251 248 247 247 247 247 248 248 249 248 248 249 250 251 251 252
221 220 219 218 216 214 212 211 210 210 209 206 204 203 202 201 201 205 213 219 216 214 214 213 213 212 212 212 211 215 218 216 218 216 211 214 216 217 220 217 216 218 218 219 222 223 222 222 222 222 222 223 224 225 224 224 228 229 229 231 232 235 236 237 240 242 244 245 245 243 240 245 251 249 245 245 245 246 247 246 247 248 248 248 248 250 252 252
219 218 217 216 215 213 211 211 210 208 206 204 202 200 198 199 201 206 213 216 212 212 212 210 211 210 208 211 213 214 216 217 218 213 212 215 215 217 221 218 217 219 218 220 222 223 224 224 224 224 225 224 224 225 224 225 227 227 228 231 234 236 236 238 240 241 244 244 242 241 238 242 250 249 244 244 244 243 243 243 244 247 248 248 249 250 252 252
217 217 216 214 213 211 209 209 208 205 203 201 198 196 197 200 204 208 211 213 211 209 207 207 208 207 207 210 213 213 214 216 215 213 214 215 214 215 216 216 217 217 218 220 221 221 222 221 221 223 225 224 223 224 224 225 225 226 229 231 232 236 237 238 239 239 241 242 241 241 239 239 245 245 241 241 241 240 243 245 246 247 248 249 250 250 250 250
215 216 215 213 212 210 208 208 205 203 201 198 195 195 197 202 207 209 208 208 211 210 206 204 205 206 207 209 212 212 212 214 214 214 215 215 215 215 214 214 212 213 216 217 217 218 219 220 219 221 223 222 221 222 223 223 223 225 226 226 228 232 234 236 237 237 239 241 242 241 240 240 243 244 242 243 242 241 245 246 245 244 245 248 250 250 250 250
213 214 214 212 211 209 207 205 203 200 198 195 195 197 200 206 208 207 206 207 211 210 205 204 204 204 205 207 210 211 211 213 213 213 215 215 216 216 216 215 212 213 216 214 213 214 217 220 218 219 221 221 220 220 221 223 223 223 223 222 226 230 233 235 236 236 238 240 240 240 244 245 244 245 244 244 245 246 247 246 245 247 250 253 254 253 253 253
212 212 212 211 211 209 206 204 201 198 196 195 197 199 203 208 208 205 206 208 211 207 202 202 202 202 204 208 210 209 210 213 212 213 215 215 216 216 217 216 214 216 216 213 214 214 216 220 218 218 220 219 220 223 224 225 225 226 226 227 230 231 234 238 238 238 239 241 240 239 242 243 242 245 246 246 247 247 247 246 247 251 253 255 255 254 255 256
210 211 212 211 210 207 204 202 200 197 196 197 200 203 205 207 206 205 206 206 209 206 201 200 200 201 205 209 210 209 210 212 211 212 215 216 217 217 216 217 215 215 215 214 216 216 219 224 221 221 223 221 222 225 225 225 226 228 229 230 232 232 235 241 244 243 242 243 241 238 240 243 244 247 247 248 248 246 246 247 247 250 251 252 254 255 256 256
208 211 212 211 208 206 202 201 199 197 197 198 203 206 207 207 206 206 206 205 207 205 199 200 201 201 205 208 209 208 211 213 210 212 215 216 218 217 217 217 215 216 216 216 218 218 221 225 221 220 223 221 222 224 223 224 227 229 228 230 232 233 235 239 244 244 241 243 242 239 242 246 248 249 246 245 247 246 247 248 247 249 250 251 252 253 254 255
208 210 211 209 206 203 201 200 198 197 198 201 206 208 208 208 207 206 206 205 207 205 201 202 202 203 204 206 208 206 208 211 210 211 214 214 217 217 216 217 216 215 216 218 221 221 222 224 221 220 221 221 222 223 224 227 229 229 229 230 232 235 236 238 242 241 240 243 243 240 242 244 244 247 245 242 244 246 246 248 248 248 248 249 250 252 254 256
207 207 209 207 203 200 199 198 197 197 200 204 208 209 207 207 207 207 206 205 205 206 205 204 204 205 206 206 207 206 205 208 209 210 212 214 217 216 214 217 218 215 215 216 220 223 223 225 225 223 224 224 223 224 225 228 230 231 232 230 230 232 233 234 238 239 239 243 245 242 244 244 241 243 244 243 244 244 245 246 246 246 247 250 252 253 255 256
202 203 206 203 199 198 197 197 197 199 203 206 208 209 208 207 207 208 208 206 205 206 207 206 205 207 209 208 208 206 206 207 208 210 212 213 216 214 212 215 217 215 215 216 220 222 223 225 226 225 225 224 223 224 223 224 227 230 231 230 230 233 233 234 236 238 239 242 245 244 245 245 244 244 246 247 246 243 243 244 246 248 250 253 254 255 254 254
196 199 202 199 197 197 196 196 198 202 205 208 209 209 208 208 207 207 209 209 208 208 208 207 205 205 208 209 209 209 209 210 210 211 214 214 215 214 213 213 213 213 214 216 220 222 222 223 225 224 223 222 221 221 222 222 222 224 226 226 229 232 234 237 238 238 239 242 244 245 245 245 246 246 245 245 245 243 244 247 250 252 252 254 254 254 254 254
193 199 201 197 196 196 193 196 203 205 207 209 209 209 208 208 207 207 209 211 211 211 211 210 207 206 206 206 208 209 211 213 212 213 215 215 215 216 214 213 211 210 211 214 217 219 220 222 222 221 220 220 221 222 225 225 223 224 226 226 228 229 230 235 238 237 239 242 243 245 248 247 246 247 246 244 245 246 247 250 253 252 252 253 252 252 252 252
194 200 200 196 195 194 194 200 205 206 208 209 208 208 208 208 207 207 208 211 213 212 213 213 211 209 209 208 208 208 210 213 214 215 216 216 217 218 215 213 211 209 210 214 215 215 218 221 221 222 221 221 222 224 227 228 226 226 229 229 229 229 228 231 237 236 237 240 244 248 251 249 247 248 249 247 247 247 249 251 252 252 252 251 250 250 249 250
196 199 197 195 194 193 196 203 205 206 209 209 208 209 208 208 208 207 207 210 212 211 212 214 213 212 212 211 210 209 210 214 215 215 216 216 217 218 215 213 212 211 213 215 214 213 217 219 219 223 224 224 225 226 227 229 227 227 229 229 229 229 230 233 237 238 237 237 239 244 248 248 246 247 249 249 248 248 249 250 251 251 251 250 248 248 250 255
196 197 197 197 195 195 200 205 205 206 208 207 208 209 208 208 208 208 208 210 212 212 212 214 214 213 213 213 213 213 212 215 217 216 217 217 216 219 218 214 213 214 216 216 214 214 216 217 216 218 221 222 225 226 227 227 227 226 227 227 228 228 229 232 236 238 240 237 235 240 246 247 246 247 249 249 248 249 249 250 251 252 251 251 251 252 256 259
197 198 199 200 199 199 205 208 207 207 207 206 208 208 208 209 209 208 209 211 212 213 213 214 213 212 212 212 214 214 213 215 217 216 218 218 217 220 221 216 214 217 219 217 215 216 219 219 217 216 216 216 219 223 225 225 225 226 227 226 227 227 227 230 234 236 239 237 236 240 246 248 247 246 249 249 248 250 251 250 252 253 253 254 255 257 259 260
201 202 200 202 203 204 209 211 210 210 208 207 209 209 208 209 209 208 210 211 212 212 215 216 213 211 211 211 212 213 213 215 217 217 218 218 218 220 222 219 216 218 218 215 215 218 222 223 222 222 222 220 220 223 224 224 224 226 226 225 226 227 228 230 234 235 237 239 239 241 245 248 248 248 250 251 250 251 253 251 251 252 252 254 256 258 259 259
206 206 202 202 205 207 210 211 211 212 210 209 210 210 209 209 209 207 209 211 212 211 215 217 214 211 210 209 210 212 212 214 217 218 218 219 219 221 223 223 220 218 217 217 217 220 224 224 225 226 228 228 228 227 225 223 223 224 225 225 226 228 229 230 234 236 237 240 242 243 244 247 249 250 251 252 251 251 250 250 252 253 254 257 258 260 262 262
208 208 205 205 208 209 210 210 211 211 210 210 211 211 210 210 210 208 208 210 212 212 214 216 215 214 211 209 211 213 212 213 217 218 218 218 219 220 221 224 223 218 217 219 221 223 226 226 226 227 230 232 232 231 229 228 228 226 225 225 225 226 227 229 233 235 236 239 244 245 245 246 248 250 249 249 251 252 251 254 257 258 259 260 261 262 263 263
209 210 207 208 212 214 214 211 210 211 211 211 212 212 211 211 211 210 208 208 211 212 213 215 217 215 213 212 213 213 211 212 215 219 220 218 218 219 219 222 224 221 220 222 223 225 227 228 227 229 232 233 232 232 231 231 231 230 229 228 227 227 228 230 233 235 236 239 243 245 247 247 249 250 249 249 253 255 257 258 259 259 259 259 259 261 262 261
211 212 209 209 212 215 215 212 209 212 214 214 214 214 212 211 211 211 210 209 210 210 212 216 218 217 214 214 214 215 213 213 216 219 220 219 219 220 220 221 222 221 221 223 224 225 228 229 229 230 233 234 233 232 232 232 233 233 233 232 231 231 232 233 236 237 238 241 243 244 247 249 250 251 251 251 253 256 258 259 259 259 259 258 258 260 261 262
213 215 212 212 213 211 212 211 210 213 215 215 216 215 214 213 211 210 211 212 212 212 213 215 217 217 217 216 217 217 215 215 219 221 220 221 222 222 222 223 221 219 220 222 222 224 227 229 229 230 234 235 233 233 233 234 236 237 235 232 231 231 233 235 237 238 238 240 243 244 246 248 249 250 250 250 251 253 256 259 259 259 257 256 258 259 260 260
215 215 214 215 215 212 212 213 213 216 217 217 217 215 215 214 211 210 212 213 215 217 217 216 217 219 219 219 218 219 218 219 222 224 224 226 226 224 223 223 221 219 220 220 221 223 225 227 228 229 232 234 233 233 233 234 237 238 235 232 232 233 235 237 239 238 238 240 244 245 247 248 249 250 250 250 250 252 255 257 258 257 256 255 256 258 258 259